MicroStrategy Current Ratio 2006-2019 | MSTR

MicroStrategy current ratio from 2006 to 2019. Current ratio can be defined as a liquidity ratio that measures a company's ability to pay short-term obligations.
MicroStrategy Current Ratio Historical Data
Date Current Assets Current Liabilities Current Ratio
2019-09-30 $0.72B $0.23B 3.13
2019-06-30 $0.73B $0.25B 2.90
2019-03-31 $0.72B $0.26B 2.72
2018-12-31 $0.78B $0.26B 3.01
2018-09-30 $0.84B $0.21B 3.96
2018-06-30 $0.85B $0.24B 3.61
2018-03-31 $0.88B $0.26B 3.35
2017-12-31 $0.86B $0.27B 3.18
2017-09-30 $0.73B $0.18B 4.13
2017-06-30 $0.72B $0.18B 3.94
2017-03-31 $0.70B $0.19B 3.79
2016-12-31 $0.69B $0.19B 3.69
2016-09-30 $0.65B $0.18B 3.55
2016-06-30 $0.62B $0.19B 3.28
2016-03-31 $0.61B $0.20B 3.11
2015-12-31 $0.57B $0.17B 3.27
2015-09-30 $0.54B $0.18B 2.96
2015-06-30 $0.51B $0.19B 2.73
2015-03-31 $0.48B $0.20B 2.45
2014-12-31 $0.46B $0.20B 2.34
2014-09-30 $0.46B $0.22B 2.09
2014-06-30 $0.47B $0.23B 2.02
2014-03-31 $0.46B $0.23B 2.02
2013-12-31 $0.48B $0.23B 2.06
2013-09-30 $0.44B $0.22B 2.01
2013-06-30 $0.42B $0.21B 2.02
2013-03-31 $0.43B $0.22B 1.99
2012-12-31 $0.36B $0.22B 1.65
2012-09-30 $0.34B $0.21B 1.64
2012-06-30 $0.32B $0.19B 1.63
2012-03-31 $0.33B $0.22B 1.52
2011-12-31 $0.34B $0.22B 1.57
2011-09-30 $0.31B $0.19B 1.60
2011-06-30 $0.31B $0.19B 1.59
2011-03-31 $0.31B $0.19B 1.63
2010-12-31 $0.30B $0.19B 1.59
2010-09-30 $0.28B $0.17B 1.65
2010-06-30 $0.29B $0.15B 1.88
2010-03-31 $0.30B $0.15B 2.00
2009-12-31 $0.31B $0.15B 2.00
2009-09-30 $0.28B $0.14B 2.02
2009-06-30 $0.24B $0.13B 1.86
2009-03-31 $0.23B $0.13B 1.72
2008-12-31 $0.21B $0.14B 1.50
2008-09-30 $0.22B $0.16B 1.33
2008-06-30 $0.21B $0.14B 1.49
2008-03-31 $0.20B $0.13B 1.47
2007-12-31 $0.18B $0.13B 1.43
2007-09-30 $0.17B $0.12B 1.46
2007-06-30 $0.16B $0.11B 1.42
2007-03-31 $0.15B $0.12B 1.32
2006-12-31 $0.18B $0.11B 1.56
2006-09-30 $0.13B $0.10B 1.27
2006-06-30 $0.12B $0.10B 1.21
2006-03-31 $0.15B $0.10B 1.54
2005-12-31 $0.17B $0.09B 1.87
2005-09-30 $0.14B $0.08B 1.70
2005-06-30 $0.12B $0.08B 1.40
2005-03-31 $0.19B $0.09B 2.25
Sector Industry Market Cap Revenue
Computer and Technology Computer Software $1.594B $0.498B
MicroStrategy Incorporated, a leading worldwide provider of business intelligence software, today announced that GT Nexus has selected MicroStrategy to power the customer-facing analytics and reporting capabilities on its Global Logistics portal. The GT Nexus portal is an on demand technology platform that is used by importers, exporters, transportation carriers, suppliers, banks, and other partners to manage goods that are moving around the world. The GT Nexus system captures and stores hard-to-get data associated with global supply chains, and then fuels a range of Web applications that can be used by constituents to lower supply chain costs and improve control. MicroStrategy will help GT Nexus to deliver a wide range of analytics and reporting capabilities to its customers, which include Home Depot, Kmart, Xerox, Weyerhaeuser, and American Eagle Outfitters.
Stock Name Country Market Cap PE Ratio
Microsoft (MSFT) United States $1000.000B 30.13
Oracle (ORCL) United States $184.445B 17.03
SAP SE (SAP) Germany $161.351B 30.24
Adobe (ADBE) United States $143.849B 48.72
Salesforce, Inc (CRM) United States $142.749B 111.49
Intuit (INTU) United States $69.804B 48.36
VMware (VMW) United States $68.389B 34.02
Dassault Systemes SA (DASTY) France $40.422B 45.04
Autodesk (ADSK) United States $35.670B 238.88
Synopsys (SNPS) United States $20.924B 34.04
ANSYS (ANSS) United States $20.094B 44.36
Cadence Design Systems (CDNS) United States $18.864B 44.23
SS&C Technologies Holdings (SSNC) United States $14.786B 16.81
Citrix Systems (CTXS) United States $14.656B 26.93
Open Text (OTEX) Canada $11.765B 36.26
PTC (PTC) United States $8.386B 56.01
Aspen Technology (AZPN) United States $8.132B 30.42
Trend Micro (TMICY) Japan $7.214B 26.90
Pegasystems (PEGA) United States $6.019B 0.00
Konami (KNMCY) Japan $5.802B 19.15
Manhattan Associates (MANH) United States $4.980B 53.38
Nuance Communications (NUAN) United States $4.745B 17.86
Blackbaud (BLKB) United States $4.117B 57.34
ACI Worldwide (ACIW) United States $3.896B 36.24
Cornerstone OnDemand (CSOD) United States $3.615B 372.06
Descartes Systems Group (DSGX) Canada $3.496B 106.54
Verint Systems (VRNT) United States $3.230B 19.04
PROS Holdings (PRO) United States $2.304B 0.00
CommVault Systems (CVLT) United States $2.249B 87.84
Bottomline Technologies (EPAY) United States $2.077B 90.86
Progress Software (PRGS) United States $1.861B 18.47
Sapiens (SPNS) Israel $1.131B 32.75
QAD (QADB) United States $0.743B 173.95
Simulations Plus (SLP) United States $0.621B 73.35
American Software (AMSWA) United States $0.527B 59.96
Magic Software Enterprises (MGIC) Israel $0.480B 17.23
Rosetta Stone (RST) United States $0.345B 0.00
Avid Technology (AVID) United States $0.327B 17.66
GlobalSCAPE (GSB) United States $0.200B 16.24
Smith Micro Software (SMSI) United States $0.174B 15.55
ServiceSource (SREV) United States $0.162B 0.00
OptimizeRx (OPRX) United States $0.136B 0.00
Icad Inc (ICAD) United States $0.128B 0.00
Park City (PCYG) United States $0.089B 32.14
NetSol Technologies (NTWK) United States $0.050B 6.55
GSE Systems (GVP) United States $0.024B 9.23
BSQUARE (BSQR) United States $0.016B 0.00
Neonode (NEON) Sweden $0.012B 0.00
CounterPath (CPAH) Canada $0.006B 0.00